TimeEDT,TemperatureF,Dew PointF,Humidity,Sea Level PressureIn,VisibilityMPH,Wind Direction,Wind SpeedMPH,Gust SpeedMPH,PrecipitationIn,Events,Conditions,WindDirDegrees,DateUTC
12:47 AM,59.0,59.0,100,-9999,0.0,WNW,41.4,-,N/A,Fog,Fog,290,2013-09-11 04:47:00
1:50 AM,59.0,59.0,100,-9999,0.0,WNW,42.6,-,N/A,Fog,Fog,290,2013-09-11 05:50:00
2:52 AM,60.8,60.8,100,-9999,0.0,WNW,46.0,-,N/A,Fog,Fog,290,2013-09-11 06:52:00
3:50 AM,60.8,60.8,100,-9999,0.0,WNW,44.9,49.5,N/A,Fog,Fog,290,2013-09-11 07:50:00
4:49 AM,59.0,59.0,100,-9999,0.0,WNW,44.9,50.6,N/A,Fog,Fog,290,2013-09-11 08:49:00
5:51 AM,59.0,59.0,100,-9999,0.0,WNW,47.2,57.5,N/A,Fog,Fog,290,2013-09-11 09:51:00
6:49 AM,57.2,57.2,100,-9999,0.0,WNW,47.2,-,N/A,Fog,Fog,290,2013-09-11 10:49:00
7:50 AM,57.2,57.2,100,-9999,0.0,WNW,44.9,-,N/A,Fog,Fog,290,2013-09-11 11:50:00
8:51 AM,57.2,57.2,100,-9999,0.0,WNW,41.4,-,N/A,Fog,Fog,290,2013-09-11 12:51:00
9:55 AM,57.2,57.2,100,-9999,0.1,WNW,42.6,49.5,N/A,Fog,Fog,290,2013-09-11 13:55:00
10:48 AM,57.2,57.2,100,-9999,0.1,WNW,42.6,-,N/A,Fog,Fog,290,2013-09-11 14:48:00
11:51 AM,59.0,59.0,100,-9999,0.1,WNW,46.0,54.1,N/A,Fog,Fog,290,2013-09-11 15:51:00
12:50 PM,59.0,55.4,88,-9999,30.0,WNW,48.3,55.2,N/A,,Scattered Clouds,290,2013-09-11 16:50:00
1:53 PM,62.6,55.4,77,-9999,30.0,West,43.7,52.9,N/A,,Scattered Clouds,280,2013-09-11 17:53:00
2:51 PM,62.6,57.2,82,-9999,20.0,West,47.2,-,N/A,,Scattered Clouds,280,2013-09-11 18:51:00
3:51 PM,60.8,59.0,94,-9999,20.0,West,48.3,55.2,N/A,,Scattered Clouds,280,2013-09-11 19:51:00
4:52 PM,62.6,57.2,82,-9999,7.0,West,38.0,57.5,N/A,Thunderstorm,Thunderstorm,270,2013-09-11 20:52:00
5:48 PM,60.8,59.0,94,-9999,15.0,West,40.3,50.6,N/A,Thunderstorm,Thunderstorm,270,2013-09-11 21:48:00
6:47 PM,55.4,55.4,100,-9999,0.0,West,49.5,77.1,N/A,Fog-Rain-Hail-Thunderstorm,Heavy Thunderstorms and Rain,280,2013-09-11 22:47:00
7:47 PM,55.4,55.4,100,-9999,0.0,WNW,59.8,70.2,N/A,Fog-Rain-Thunderstorm,Thunderstorms and Rain,290,2013-09-11 23:47:00
8:52 PM,57.2,55.4,94,-9999,15.0,West,43.7,-,N/A,,Mostly Cloudy,280,2013-09-12 00:52:00
9:49 PM,53.6,53.6,100,-9999,0.0,West,65.6,82.9,N/A,Fog-Rain-Thunderstorm,Heavy Thunderstorms and Rain,270,2013-09-12 01:49:00
10:56 PM,53.6,51.8,94,-9999,60.0,West,50.6,67.9,N/A,,Overcast,260,2013-09-12 02:56:00
11:56 PM,51.8,51.8,100,-9999,0.1,West,40.3,50.6,N/A,Fog-Rain,Light Rain Showers,270,2013-09-12 03:56:00